Other Public Products
Issued by NWS Grand Forks, ND

Home | Current Version | Previous Version | Text Only | Print | Product List | Glossary Off
Versions: 1 2 3 4 5 6 7 8 9 10 11 12 13 14 15 16 17 18 19 20 21 22 23 24 25 26 27 28 29 30 31 32 33 34 35 36 37 38 39 40 41 42 43 44 45 46 47 48 49 50

000
FPUS83 KFGF 260910
OPUFGF
PRAIRIE TO PINES WEATHER ROUNDUP
NATIONAL WEATHER SERVICE EASTERN NORTH DAKOTA/GRAND FORKS ND
300 AM CST MON JAN 26 2015

 **SATELLITE DATA USED TO AUGMENT SKY COVER AT AUTOMATED STATIONS**
 *****  WEATHER ACROSS EASTERN NORTH DAKOTA  *****

CITY           SKY/WX    TMP DP  RH WIND       PRES   REMARKS
GRAND FORKS    CLEAR     30  27  88 W8        29.61S WCI  22
GRAND FORKS AF CLEAR     38  31  76 NW15      29.62R
GRAND CITY NWS   N/A     28 N/A N/A W7          N/A  WCI  21
BUXTON         NOT AVBL
DEVILS LAKE    CLEAR     36  30  80 W17       29.67R
FARGO          MOCLDY    31  27  85 SW12      29.66F WCI  22
WAHPETON ARPT  CLOUDY    32  28  86 S6        29.70F
$$

 *****  WEATHER ACROSS CENTRAL AND WESTERN NORTH DAKOTA  *****

CITY           SKY/WX    TMP DP  RH WIND       PRES   REMARKS
JAMESTOWN      MOCLDY    38  32  79 NW20      29.70R
BISMARCK       CLEAR     41  31  67 NW9       29.82R
MINOT          MOCLDY    38  31  76 W13       29.77R
MINOT AFB      MOCLDY    38  36  93 NW18      29.76R
GARRISON         N/A     39  33  79 NW20      29.80R
WILLISTON      MOCLDY    37  32  82 SW5       29.88R
DICKINSON      MOCLDY    39  33  79 W13       29.86R
HETTINGER      CLEAR     36  31  82 NW9       29.90R
$$

 *****  OTHER OBSERVATIONS NORTHEAST NORTH DAKOTA  *****

CITY           SKY/WX    TMP DP  RH WIND       PRES   REMARKS
WALHALLA         N/A     39  36  87 NW15G25   29.60R
LANGDON        FAIR      34  28  80 W24       29.61S WCI  21
CAVALIER       FAIR      37  32  81 NW14G22   29.59R
GRAFTON        NOT AVBL
CANDO          FAIR      32  28  86 W16       29.67S WCI  21
FORT TOTTEN      N/A     36  32  85 NW9       29.95S
ROLLA          FAIR      39  32  75 NW16G24   29.67R
RUGBY          FAIR      32  32 100 W15       29.71R WCI  22
 ***** THE ABOVE OBSERVATIONS ARE NON NWS ARE NOT QUALITY
        CONTROLLED AND MAY MIS-REPORT RAIN FOR SNOW...
$$

 *****  OTHER OBSERVATIONS SOUTHEAST NORTH DAKOTA *****

CITY           SKY/WX    TMP DP  RH WIND       PRES   REMARKS
COOPERSTOWN    NOT AVBL
VALLEY CITY    NOT AVBL
OAKES            N/A     34  34 100 SW9       29.71S
GWINNER        PTSUNNY   36  36 100 W17       29.70F
SHEYENNE NWR     N/A     34  31  88 W9        29.95S
BUFFALO        NOT AVBL
WYNDMERE         N/A     36  32  87 W12         N/A
 ***** THE ABOVE OBSERVATIONS ARE NON NWS ARE NOT QUALITY
       CONTROLLED AND MAY MIS-REPORT RAIN FOR SNOW...
$$

  *****  WEATHER ACROSS NORTHERN MINNESOTA  *****

CITY           SKY/WX    TMP DP  RH WIND       PRES   REMARKS
FLAG ISLAND    CLOUDY    23  21  93 S10       29.53F WCI  12
WARROAD        CLOUDY    28  25  86 SW12      29.55F WCI  18
ROSEAU         CLOUDY    30  25  80 SW13      29.56S WCI  20
HALLOCK        PTCLDY    25  21  86 SW5       29.58S WCI  19
THF RVR FALLS  MOCLDY    27  27 100 SW12      29.60F WCI  16
HALSTAD          N/A     29  27  92 SW12        N/A  WCI  19
FOSSTON        MOCLDY    27  25  93 S13       29.62F WCI  16
BAUDETTE       CLOUDY    26  19  74 S12       29.55F WCI  16
WASKISH        CLOUDY    27  21  80 S6        29.58F WCI  20
CROOKSTON      CLEAR     27  27 100 SW9       29.63S WCI  17
$$
  *****  WEATHER ACROSS CENTRAL AND WEST MINNESOTA  *****

CITY           SKY/WX    TMP DP  RH WIND       PRES   REMARKS
BEMIDJI        CLOUDY    26  22  84 SW9       29.62F WCI  17
PARK RAPIDS    CLOUDY    27  22  81 S14       29.64F WCI  16
WADENA         CLOUDY    27  25  93 S9        29.65F WCI  17
DETROIT LAKES  CLOUDY    32  28  86 SW9       29.66R WCI  24
MOORHEAD       MOCLDY    30  30 100 S9        29.68F WCI  22
FERGUS FALLS   PTCLDY    30  28  93 SW14      29.72F WCI  20
ELBOW LAKE     CLOUDY    30  28  95 S16       29.70R WCI  18
MORRIS MN      PTCLDY    30  30 100 S14G21    29.69F WCI  20
STAPLES        CLOUDY    27  23  86 S10       29.69F WCI  17
WHEATON        MOCLDY    30  28  93 SW13G18   29.74R WCI  20
$$
  *****  WEATHER ELSEWHERE ACROSS MINNESOTA  *****

CITY           SKY/WX    TMP DP  RH WIND       PRES   REMARKS
DULUTH         FLURRIES  20  12  71 S7        29.76F WCI  11
INTRNTL FALLS  FLURRIES  22  18  85 VRB6      29.60F WCI  14
ELY            LGT SNOW  18  16  93 S8        29.72F WCI   7
CLOQUET        FLURRIES  21  16  79 S8        29.75F WCI  12
BRAINERD       CLOUDY    25  21  85 S12       29.72F WCI  14
HIBBING        SNOW      21  16  81 SE8       29.71F VSB 1/2 WCI  11
ALEXANDRIA     CLOUDY    31  28  89 SW18G26   29.68F WCI  19
SAINT CLOUD    CLOUDY    25  22  88 S12       29.77F WCI  14
MINNEAPOLIS    CLOUDY    24  18  77 SE9       29.86F WCI  14
$$

  *****  WEATHER ACROSS SOUTH DAKOTA  *****

CITY           SKY/WX    TMP DP  RH WIND       PRES   REMARKS
SIOUX FALLS    PTCLDY    33  30  88 SW7       29.86F
BROOKINGS      NOT AVBL
WATERTOWN      PTCLDY    33  30  88 SW15      29.75F WCI  23
HURON          CLEAR     31  29  92 SW7       29.80F WCI  24
SISSETON         N/A     39  31  72 W12       29.72S
ABERDEEN       PTCLDY    32  29  88 SW7       29.76S
MITCHELL       CLEAR     33  30  88 SW10      29.83F WCI  25
PIERRE         PTCLDY    34  28  79 W7        29.85S
MOBRIDGE       CLEAR     39  33  79 N10       29.80R
RAPID CITY     CLEAR     52  29  41 NW16      29.96S
$$

  *****  SOME WEATHER IN NEARBY STATES *****

CITY           SKY/WX    TMP DP  RH WIND       PRES   REMARKS
GLASGOW MT     CLEAR     35  30  82 NW8       29.94R
GREAT FALLS MT CLOUDY    53  27  36 SW16      30.07F
CHEYENNE WY    MOCLDY    47  23  38 NW12      30.20F
SCOTTSBLUFF NE CLOUDY    37  31  78 NW9       30.12R
OMAHA NE       CLEAR     28  26  92 S9        30.00F WCI  19
DES MOINES IA  CLOUDY    32  26  78 SW8       30.01F WCI  25
DAVENPORT IA   CLEAR     10   5  80 W3        30.03F
CHICAGO IL     MOCLDY    23  15  71 E9        29.97F WCI  13
EAU CLAIRE WI  CLOUDY    20  12  71 S9        29.91F WCI   9
LA CROSSE WI   CLOUDY    23  13  65 S12       29.96F WCI  12
$$

  *****  SOME NATIONAL WEATHER *****

CITY           SKY/WX    TMP DP  RH WIND       PRES   REMARKS
LA GUARDIA NY  CLOUDY    25   9  50 NE16      30.03R WCI  12
RALEIGH NC     CLOUDY    39  34  82 CALM      29.71F
ATLANTA GA     PTCLDY    43  38  82 W9        29.74S
NEW ORLEANS LA CLEAR     51  35  54 NW10      30.04R
OKLAHOMA CITY  CLEAR     30  24  78 CALM      30.18S
ALBUQUERQUE NM PTCLDY    33  24  69 NE6       30.35R
SALT LAKE CITY CLEAR     31  29  92 SE3       30.41S
LOS ANGELES CA CLOUDY    63  34  33 CALM      30.01F
BOISE ID       CLEAR     34  32  92 SE6       30.39F
SEATTLE WA     FOG       47  45  93 CALM      29.96S VSB 1/8
$$

*** WEATHER ACROSS MANITOBA...SASKATCHEWAN AND ONTARIO ***
                ***ONTARIO***

CITY           SKY/WX    TMP DP  RH WIND       PRES   REMARKS
GERALDTON      FLURRIES  -6 -11  77 CALM      29.84F
THUNDER BAY    LGT SNOW   9   7  92 CALM      29.86F
SIOUX LOOKOUT  LGT SNOW  18  14  86 S10       29.59F WCI   6
TORONTO        FLURRIES  10   1  67 NE10      30.01F WCI  -3
BIG TROUT LK   LGT SNOW   3   1  92 SE8       29.72F WCI -10
PICKLE LAKE    NOT AVBL
DRYDEN         LGT SNOW  19  18  93 S13G20    29.55F WCI   7
KENORA         LGT SNOW  19  18  93 S12G17    29.51F DRFTSNOWWCI   7
$$
                *** MANITOBA***

CITY           SKY/WX    TMP DP  RH WIND       PRES   REMARKS
BRANDON        PTCLDY    32  28  86 W21       29.63S WCI  20
DAUPHIN        PTCLDY    37  30  75 W22       29.58R
ISLAND LAKE    CLOUDY     9   7  92 E3        29.60F
PILOT MOUND    NOT AVBL
THE PAS        PTCLDY    14  12  92 N14       29.72R WCI  -1
THOMPSON       CLOUDY     5   0  78 N7        29.73R WCI  -7
WINNIPEG       CLOUDY    30  27  86 W12       29.55R WCI  21
LYNN LAKE      CLOUDY     3   1  92 N2        29.73R
CHURCHILL      CLEAR    -15 -20  76 SE9       29.90S WCI -33
GILLAM         LGT SNOW   0  -6  78 E5        29.76R VSB 1   WCI -10
$$
                ***SASKATCHEWAN***

CITY           SKY/WX    TMP DP  RH WIND       PRES   REMARKS
ESTEVAN        PTCLDY    36  30  80 W15       29.80S
KINDERSLEY     PTCLDY    30  25  80 W10       29.90R WCI  21
LLOYDMINSTER   CLOUDY    36  28  75 W13       29.82R
PRINCE ALBERT  CLEAR     32  27  80 W6        29.75R
REGINA         PTCLDY    36  30  80 W16       29.85R



USA.gov is the U.S. government's official web portal to all federal, state and local government web resources and services.